CKS122 KMLB-KBWI

Flight info

Callsign CKS122
Flight time 1h 53m
Altitude 33000
Route WORMS GUANO BKENI VIYAP Q87 RAYVO Q113 AARNN THHMP RAVNN8
Aircraft B77L/H-SDE1E2E3FGHIJ2J3J4J5M1RWXY/LB1D1

Departure

Time 2026-04-22 04:53
Airport Melbourne Orlando International Airport (KMLB)

Arrival

Time 2026-04-22 06:46
Airport Baltimore/Washington International Thurgood Marshall Airport (KBWI)
Time Latitude Longitude Altitude Speed Heading
2026-04-22 04:33 28.09865 -80.62708 36 ft 0 kts 22°
2026-04-22 04:36 28.09864 -80.62708 36 ft 0 kts 22°
2026-04-22 04:38 28.09864 -80.62709 36 ft 0 kts 22°
2026-04-22 04:43 28.09856 -80.62713 36 ft 1 kts 22°
2026-04-22 04:43 28.09844 -80.62718 35 ft 2 kts 19°
2026-04-22 04:43 28.09828 -80.62722 34 ft 2 kts
2026-04-22 04:44 28.09812 -80.62721 35 ft 2 kts 345°
2026-04-22 04:44 28.09796 -80.62715 33 ft 2 kts 327°
2026-04-22 04:44 28.09788 -80.62708 33 ft 0 kts 317°
2026-04-22 04:45 28.09795 -80.62719 34 ft 9 kts 303°
2026-04-22 04:45 28.09862 -80.62822 36 ft 21 kts 322°
2026-04-22 04:45 28.09959 -80.62892 35 ft 8 kts 318°
2026-04-22 04:46 28.09974 -80.62970 35 ft 16 kts 280°
2026-04-22 04:46 28.09998 -80.63110 34 ft 17 kts 284°
2026-04-22 04:46 28.10060 -80.63209 35 ft 15 kts 311°
2026-04-22 04:46 28.10113 -80.63304 36 ft 14 kts 281°
2026-04-22 04:47 28.10112 -80.63417 34 ft 15 kts 268°
2026-04-22 04:47 28.10108 -80.63536 35 ft 15 kts 268°
2026-04-22 04:47 28.10108 -80.63553 36 ft 0 kts 268°
2026-04-22 04:48 28.10107 -80.63565 36 ft 9 kts 268°
2026-04-22 04:48 28.10102 -80.63716 39 ft 22 kts 268°
2026-04-22 04:49 28.10096 -80.63890 37 ft 22 kts 267°
2026-04-22 04:49 28.10088 -80.64065 39 ft 22 kts 267°
2026-04-22 04:49 28.10080 -80.64239 41 ft 22 kts 267°
2026-04-22 04:49 28.10071 -80.64412 40 ft 22 kts 267°
2026-04-22 04:50 28.10063 -80.64584 41 ft 22 kts 266°
2026-04-22 04:50 28.10056 -80.64764 41 ft 24 kts 268°
2026-04-22 04:50 28.10047 -80.64954 39 ft 24 kts 267°
2026-04-22 04:50 28.10039 -80.65144 41 ft 24 kts 267°
2026-04-22 04:51 28.10031 -80.65335 41 ft 24 kts 267°
2026-04-22 04:51 28.10022 -80.65525 43 ft 24 kts 266°
2026-04-22 04:51 28.10012 -80.65715 45 ft 24 kts 266°
2026-04-22 04:51 28.10002 -80.65906 47 ft 24 kts 266°
2026-04-22 04:52 28.10003 -80.66069 48 ft 15 kts 298°
2026-04-22 04:52 28.10100 -80.66091 47 ft 15 kts 23°
2026-04-22 04:52 28.10132 -80.66018 44 ft 0 kts 86°
2026-04-22 04:52 28.10133 -80.66006 44 ft 7 kts 86°
2026-04-22 04:53 28.10148 -80.65699 45 ft 74 kts 87°
2026-04-22 04:53 28.10188 -80.64870 41 ft 134 kts 86°
2026-04-22 04:53 28.10254 -80.63628 61 ft 176 kts 86°
2026-04-22 04:53 28.10332 -80.62273 683 ft 173 kts 85°
2026-04-22 04:54 28.10394 -80.60880 1223 ft 179 kts 84°
2026-04-22 04:54 28.10461 -80.59396 1499 ft 201 kts 85°
2026-04-22 04:54 28.10538 -80.57730 1759 ft 223 kts 84°
2026-04-22 04:54 28.10620 -80.55964 2439 ft 228 kts 84°
2026-04-22 04:55 28.10709 -80.54127 2975 ft 239 kts 85°
2026-04-22 04:55 28.10966 -80.52245 3483 ft 246 kts 65°
2026-04-22 04:55 28.11970 -80.50711 4228 ft 246 kts 39°
2026-04-22 04:55 28.13501 -80.49885 4889 ft 252 kts 11°
2026-04-22 04:56 28.15247 -80.49961 5670 ft 256 kts 348°
2026-04-22 04:56 28.16861 -80.50857 6290 ft 264 kts 324°
2026-04-22 04:56 28.18258 -80.52230 6963 ft 266 kts 320°
2026-04-22 04:56 28.19638 -80.53649 7658 ft 269 kts 320°
2026-04-22 04:57 28.21028 -80.55092 8347 ft 271 kts 319°
2026-04-22 04:57 28.22421 -80.56538 9042 ft 274 kts 319°
2026-04-22 04:57 28.23833 -80.58000 9761 ft 276 kts 318°
2026-04-22 04:57 28.25262 -80.59475 10380 ft 281 kts 318°
2026-04-22 04:58 28.26759 -80.61018 10618 ft 300 kts 318°
2026-04-22 04:58 28.28365 -80.62670 10806 ft 323 kts 318°
2026-04-22 04:58 28.30093 -80.64446 10919 ft 347 kts 318°
2026-04-22 04:58 28.31919 -80.66319 11409 ft 358 kts 318°
2026-04-22 04:59 28.33782 -80.68229 12112 ft 364 kts 317°
2026-04-22 04:59 28.35679 -80.70174 12904 ft 369 kts 317°
2026-04-22 04:59 28.37572 -80.72114 13634 ft 375 kts 317°
2026-04-22 04:59 28.39521 -80.74114 14375 ft 380 kts 317°
2026-04-22 05:00 28.41488 -80.76132 15130 ft 382 kts 317°
2026-04-22 05:00 28.43469 -80.78164 15946 ft 384 kts 317°
2026-04-22 05:00 28.45453 -80.80202 16698 ft 386 kts 317°
2026-04-22 05:00 28.47457 -80.82261 17441 ft 389 kts 317°
2026-04-22 05:01 28.49475 -80.84335 18160 ft 393 kts 317°
2026-04-22 05:01 28.51511 -80.86429 18830 ft 396 kts 316°
2026-04-22 05:01 28.53559 -80.88537 19469 ft 398 kts 316°
2026-04-22 05:01 28.55612 -80.90650 20219 ft 396 kts 316°
2026-04-22 05:02 28.57657 -80.92756 20896 ft 398 kts 315°
2026-04-22 05:02 28.59721 -80.94885 21420 ft 403 kts 315°
2026-04-22 05:02 28.61812 -80.97043 21982 ft 407 kts 315°
2026-04-22 05:02 28.63910 -80.99209 22602 ft 409 kts 315°
2026-04-22 05:03 28.66029 -81.01396 23225 ft 411 kts 315°
2026-04-22 05:03 28.68125 -81.03561 23823 ft 413 kts 314°
2026-04-22 05:03 28.70261 -81.05769 24324 ft 415 kts 314°
2026-04-22 05:03 28.72412 -81.07994 24800 ft 418 kts 314°
2026-04-22 05:04 28.74566 -81.10223 25294 ft 420 kts 314°
2026-04-22 05:04 28.76731 -81.12465 25789 ft 421 kts 314°
2026-04-22 05:04 28.78906 -81.14718 26292 ft 423 kts 314°
2026-04-22 05:04 28.81093 -81.16985 26770 ft 426 kts 314°
2026-04-22 05:05 28.83287 -81.19261 27240 ft 428 kts 314°
2026-04-22 05:05 28.85504 -81.21563 27694 ft 430 kts 314°
2026-04-22 05:05 28.87695 -81.23838 28148 ft 432 kts 314°
2026-04-22 05:05 28.89928 -81.26159 28601 ft 434 kts 314°
2026-04-22 05:06 28.92168 -81.28488 29051 ft 437 kts 314°
2026-04-22 05:06 28.94415 -81.30826 29460 ft 439 kts 314°
2026-04-22 05:06 28.96674 -81.33177 29888 ft 440 kts 314°
2026-04-22 05:06 28.99098 -81.35334 30195 ft 448 kts 323°
2026-04-22 05:07 29.01899 -81.36960 30578 ft 455 kts 331°
2026-04-22 05:07 29.04894 -81.38188 31023 ft 459 kts 337°
2026-04-22 05:07 29.08057 -81.38878 31424 ft 470 kts 347°
2026-04-22 05:07 29.11359 -81.38950 31787 ft 479 kts 355°
2026-04-22 05:08 29.14698 -81.38621 32114 ft 483 kts 356°
2026-04-22 05:08 29.18041 -81.38290 32469 ft 482 kts 356°
2026-04-22 05:08 29.21385 -81.37992 32837 ft 481 kts 355°
2026-04-22 05:08 29.24721 -81.37716 33229 ft 479 kts 355°
2026-04-22 05:09 29.28053 -81.37451 33335 ft 483 kts 355°
2026-04-22 05:09 29.34707 -81.36929 33304 ft 479 kts 355°
2026-04-22 05:10 29.41322 -81.36399 33316 ft 474 kts 355°
2026-04-22 05:10 29.47892 -81.35875 33317 ft 472 kts 355°
2026-04-22 05:11 29.54445 -81.35351 33321 ft 472 kts 356°
2026-04-22 05:11 29.60997 -81.34826 33321 ft 472 kts 356°
2026-04-22 05:12 29.67510 -81.34709 33317 ft 464 kts 349°
2026-04-22 05:12 29.73961 -81.35094 33325 ft 464 kts 349°
2026-04-22 05:13 29.80419 -81.35497 33325 ft 465 kts 349°
2026-04-22 05:13 29.86877 -81.35870 33328 ft 465 kts 349°
2026-04-22 05:14 29.93338 -81.36228 33323 ft 465 kts 349°
2026-04-22 05:14 29.99793 -81.36581 33324 ft 464 kts 349°
2026-04-22 05:15 30.06227 -81.36936 33323 ft 462 kts 349°
2026-04-22 05:15 30.12618 -81.37289 33320 ft 462 kts 349°
2026-04-22 05:16 30.19033 -81.37645 33319 ft 461 kts 349°
2026-04-22 05:16 30.25438 -81.38001 33325 ft 460 kts 349°
2026-04-22 05:17 30.31806 -81.38355 33308 ft 460 kts 349°
2026-04-22 05:17 30.38202 -81.38711 33306 ft 460 kts 349°
2026-04-22 05:18 30.47800 -81.39246 33319 ft 460 kts 349°
2026-04-22 05:18 30.54193 -81.39604 33323 ft 460 kts 349°
2026-04-22 05:19 30.60593 -81.39961 33327 ft 460 kts 349°
2026-04-22 05:19 30.66995 -81.40320 33330 ft 460 kts 349°
2026-04-22 05:20 30.73390 -81.40678 33320 ft 460 kts 349°
2026-04-22 05:20 30.79746 -81.41035 33312 ft 460 kts 349°
2026-04-22 05:21 30.86152 -81.41395 33313 ft 460 kts 349°
2026-04-22 05:21 30.92548 -81.41755 33304 ft 460 kts 349°
2026-04-22 05:22 30.98953 -81.42116 33308 ft 461 kts 349°
2026-04-22 05:22 31.04278 -81.42416 33305 ft 461 kts 349°
2026-04-22 05:23 31.10686 -81.42778 33305 ft 461 kts 349°
2026-04-22 05:23 31.17096 -81.43141 33306 ft 461 kts 349°
2026-04-22 05:24 31.23550 -81.43063 33320 ft 472 kts
2026-04-22 05:24 31.30002 -81.41137 33320 ft 488 kts 14°
2026-04-22 05:25 31.36215 -81.37789 33327 ft 493 kts 18°
2026-04-22 05:25 31.42354 -81.34331 33318 ft 493 kts 17°
2026-04-22 05:26 31.48550 -81.30917 33314 ft 492 kts 17°
2026-04-22 05:26 31.54762 -81.27537 33305 ft 491 kts 17°
2026-04-22 05:27 31.60960 -81.24159 33308 ft 491 kts 17°
2026-04-22 05:27 31.67159 -81.20772 33299 ft 491 kts 17°
2026-04-22 05:28 31.73356 -81.17381 33294 ft 490 kts 17°
2026-04-22 05:28 31.79536 -81.13996 33289 ft 490 kts 17°
2026-04-22 05:29 31.85719 -81.10603 33290 ft 490 kts 17°
2026-04-22 05:29 31.91850 -81.07233 33292 ft 489 kts 17°
2026-04-22 05:30 31.98015 -81.03840 33287 ft 489 kts 17°
2026-04-22 05:30 32.04168 -81.00433 33289 ft 489 kts 17°
2026-04-22 05:31 32.10308 -80.96995 33291 ft 488 kts 17°
2026-04-22 05:31 32.16441 -80.93553 33314 ft 488 kts 17°
2026-04-22 05:32 32.22579 -80.90107 33319 ft 488 kts 17°
2026-04-22 05:32 32.28706 -80.86665 33316 ft 487 kts 17°
2026-04-22 05:33 32.34838 -80.83215 33322 ft 487 kts 17°
2026-04-22 05:33 32.40916 -80.79790 33319 ft 487 kts 18°
2026-04-22 05:34 32.47029 -80.76340 33316 ft 487 kts 18°
2026-04-22 05:34 32.53146 -80.72882 33315 ft 487 kts 18°
2026-04-22 05:35 32.59257 -80.69422 33310 ft 487 kts 18°
2026-04-22 05:35 32.65366 -80.65958 33322 ft 487 kts 18°
2026-04-22 05:36 32.71473 -80.62490 33331 ft 487 kts 18°
2026-04-22 05:36 32.77569 -80.58919 33323 ft 488 kts 19°
2026-04-22 05:37 32.83600 -80.55315 33335 ft 488 kts 19°
2026-04-22 05:37 32.89675 -80.51688 33330 ft 488 kts 19°
2026-04-22 05:38 32.95745 -80.48072 33340 ft 488 kts 19°
2026-04-22 05:38 33.01830 -80.44448 33303 ft 488 kts 19°
2026-04-22 05:39 33.07910 -80.40819 33310 ft 489 kts 19°
2026-04-22 05:39 33.13997 -80.37180 33304 ft 489 kts 19°
2026-04-22 05:40 33.20083 -80.33536 33307 ft 489 kts 19°
2026-04-22 05:40 33.26131 -80.29909 33302 ft 490 kts 19°
2026-04-22 05:41 33.32221 -80.26251 33204 ft 491 kts 20°
2026-04-22 05:41 33.38378 -80.22551 33307 ft 499 kts 20°
2026-04-22 05:42 33.44590 -80.18805 33312 ft 499 kts 20°
2026-04-22 05:42 33.50788 -80.15061 33315 ft 499 kts 20°
2026-04-22 05:43 33.56982 -80.11315 33317 ft 498 kts 20°
2026-04-22 05:43 33.63087 -80.07501 33311 ft 500 kts 24°
2026-04-22 05:44 33.68756 -80.02550 33316 ft 509 kts 34°
2026-04-22 05:44 33.74056 -79.96912 33320 ft 509 kts 35°
2026-04-22 05:45 33.79346 -79.91252 33323 ft 508 kts 35°
2026-04-22 05:45 33.84648 -79.85644 33315 ft 507 kts 34°
2026-04-22 05:46 33.89959 -79.80050 33311 ft 507 kts 34°
2026-04-22 05:46 33.95264 -79.74454 33300 ft 507 kts 34°
2026-04-22 05:47 34.00568 -79.68844 33323 ft 507 kts 34°
2026-04-22 05:47 34.05831 -79.63267 33312 ft 506 kts 34°
2026-04-22 05:48 34.11120 -79.57651 33314 ft 506 kts 34°
2026-04-22 05:48 34.16409 -79.52026 33318 ft 506 kts 34°
2026-04-22 05:49 34.21691 -79.46400 33321 ft 506 kts 34°
2026-04-22 05:49 34.26962 -79.40774 33324 ft 505 kts 34°
2026-04-22 05:50 34.32228 -79.35141 33321 ft 505 kts 34°
2026-04-22 05:50 34.37481 -79.29512 33313 ft 504 kts 34°
2026-04-22 05:51 34.42840 -79.24170 33304 ft 497 kts 27°
2026-04-22 05:51 34.48748 -79.20030 33319 ft 486 kts 19°
2026-04-22 05:52 34.54825 -79.16397 33326 ft 486 kts 19°
2026-04-22 05:52 34.60861 -79.12771 33324 ft 486 kts 19°
2026-04-22 05:53 34.66910 -79.09087 33328 ft 487 kts 19°
2026-04-22 05:53 34.72963 -79.05375 33324 ft 487 kts 19°
2026-04-22 05:54 34.79019 -79.01652 33311 ft 487 kts 20°
2026-04-22 05:54 34.85072 -78.97927 33308 ft 487 kts 20°
2026-04-22 05:55 34.91082 -78.94224 33314 ft 487 kts 20°
2026-04-22 05:55 34.97121 -78.90498 33313 ft 486 kts 20°
2026-04-22 05:56 35.03155 -78.86768 33317 ft 486 kts 20°
2026-04-22 05:56 35.09197 -78.83026 33286 ft 486 kts 20°
2026-04-22 05:57 35.15237 -78.79281 33279 ft 486 kts 20°
2026-04-22 05:57 35.21272 -78.75531 33288 ft 487 kts 20°
2026-04-22 05:58 35.27279 -78.71793 33339 ft 487 kts 21°
2026-04-22 05:58 35.33326 -78.68023 33349 ft 488 kts 21°
2026-04-22 05:59 35.39387 -78.64238 33347 ft 489 kts 21°
2026-04-22 05:59 35.45449 -78.60447 33339 ft 489 kts 21°
2026-04-22 06:00 35.51483 -78.56665 33299 ft 490 kts 21°
2026-04-22 06:00 35.57548 -78.52857 33303 ft 489 kts 21°
2026-04-22 06:01 35.63617 -78.49041 33304 ft 489 kts 21°
2026-04-22 06:01 35.69672 -78.45227 33290 ft 489 kts 21°
2026-04-22 06:02 35.75724 -78.41410 33290 ft 488 kts 21°
2026-04-22 06:02 35.81755 -78.37600 33284 ft 487 kts 21°
2026-04-22 06:03 35.87748 -78.33808 33307 ft 487 kts 21°
2026-04-22 06:03 35.93775 -78.29987 33306 ft 486 kts 21°
2026-04-22 06:04 35.99788 -78.26166 33309 ft 486 kts 21°
2026-04-22 06:04 36.05805 -78.22338 33311 ft 486 kts 21°
2026-04-22 06:05 36.11818 -78.18506 33289 ft 486 kts 21°
2026-04-22 06:05 36.17830 -78.14667 33287 ft 486 kts 21°
2026-04-22 06:06 36.23837 -78.10824 33281 ft 486 kts 21°
2026-04-22 06:06 36.29854 -78.06968 33272 ft 486 kts 21°
2026-04-22 06:07 36.35817 -78.03141 33275 ft 486 kts 21°
2026-04-22 06:07 36.41831 -77.99325 33282 ft 485 kts 20°
2026-04-22 06:08 36.47866 -77.95606 33296 ft 485 kts 20°
2026-04-22 06:08 36.53924 -77.91876 33295 ft 485 kts 20°
2026-04-22 06:09 36.59963 -77.88133 33304 ft 485 kts 20°
2026-04-22 06:09 36.65996 -77.84378 33268 ft 484 kts 20°
2026-04-22 06:10 36.72017 -77.80623 33270 ft 484 kts 20°
2026-04-22 06:10 36.78046 -77.76857 33269 ft 484 kts 20°
2026-04-22 06:11 36.84029 -77.73113 33273 ft 483 kts 20°
2026-04-22 06:11 36.90040 -77.69345 33269 ft 483 kts 21°
2026-04-22 06:12 36.96051 -77.65571 33258 ft 483 kts 21°
2026-04-22 06:12 37.01042 -77.62433 33260 ft 482 kts 21°
2026-04-22 06:13 37.07040 -77.58654 33249 ft 482 kts 21°
2026-04-22 06:13 37.13030 -77.54874 33254 ft 482 kts 21°
2026-04-22 06:14 37.16035 -77.52975 32907 ft 486 kts 21°
2026-04-22 06:14 37.19095 -77.51046 31999 ft 494 kts 21°
2026-04-22 06:14 37.22160 -77.49105 31155 ft 493 kts 22°
2026-04-22 06:14 37.25217 -77.47165 30423 ft 490 kts 22°
2026-04-22 06:15 37.28248 -77.45238 29736 ft 484 kts 22°
2026-04-22 06:15 37.31195 -77.43364 29095 ft 478 kts 22°
2026-04-22 06:15 37.34137 -77.41492 28509 ft 471 kts 22°
2026-04-22 06:15 37.37049 -77.39640 27922 ft 466 kts 22°
2026-04-22 06:16 37.39926 -77.37810 27386 ft 460 kts 22°
2026-04-22 06:16 37.42734 -77.36020 27229 ft 446 kts 22°
2026-04-22 06:16 37.45464 -77.34279 27037 ft 434 kts 21°
2026-04-22 06:16 37.48123 -77.32583 26850 ft 422 kts 21°
2026-04-22 06:17 37.50807 -77.31267 26481 ft 407 kts
2026-04-22 06:17 37.53558 -77.30607 26065 ft 399 kts
2026-04-22 06:17 37.56289 -77.30058 25629 ft 396 kts
2026-04-22 06:17 37.59002 -77.29494 25199 ft 394 kts
2026-04-22 06:18 37.61695 -77.28895 24765 ft 391 kts
2026-04-22 06:18 37.64373 -77.28269 24347 ft 389 kts
2026-04-22 06:18 37.67023 -77.27634 23921 ft 387 kts
2026-04-22 06:18 37.69663 -77.26998 23442 ft 385 kts
2026-04-22 06:19 37.72277 -77.26360 23241 ft 383 kts
2026-04-22 06:19 37.74862 -77.25697 23248 ft 384 kts
2026-04-22 06:19 37.77474 -77.25015 23229 ft 382 kts
2026-04-22 06:19 37.80071 -77.24334 23224 ft 380 kts
2026-04-22 06:20 37.82661 -77.23658 23227 ft 379 kts
2026-04-22 06:20 37.85250 -77.22986 23237 ft 379 kts
2026-04-22 06:20 37.87835 -77.22316 23234 ft 380 kts
2026-04-22 06:20 37.90425 -77.21643 23234 ft 380 kts
2026-04-22 06:21 37.93035 -77.20967 22876 ft 386 kts
2026-04-22 06:21 37.95660 -77.20284 22533 ft 384 kts
2026-04-22 06:21 37.98263 -77.19604 22188 ft 380 kts
2026-04-22 06:21 38.00845 -77.18931 21868 ft 376 kts
2026-04-22 06:22 38.03398 -77.18265 21546 ft 373 kts
2026-04-22 06:22 38.05896 -77.17613 21244 ft 370 kts
2026-04-22 06:22 38.08418 -77.16956 20795 ft 372 kts
2026-04-22 06:22 38.10962 -77.16293 20349 ft 372 kts
2026-04-22 06:23 38.13498 -77.15630 19890 ft 372 kts
2026-04-22 06:23 38.16032 -77.14965 19435 ft 370 kts
2026-04-22 06:23 38.18554 -77.14305 18991 ft 370 kts
2026-04-22 06:23 38.21074 -77.13644 18537 ft 369 kts
2026-04-22 06:24 38.26088 -77.12330 17598 ft 366 kts
2026-04-22 06:24 38.28576 -77.11676 17173 ft 363 kts
2026-04-22 06:24 38.31038 -77.11028 16771 ft 360 kts
2026-04-22 06:25 38.33480 -77.10386 16362 ft 357 kts
2026-04-22 06:25 38.35893 -77.09723 15954 ft 352 kts 11°
2026-04-22 06:25 38.38119 -77.08423 15538 ft 353 kts 30°
2026-04-22 06:25 38.40095 -77.06612 15186 ft 354 kts 32°
2026-04-22 06:26 38.42093 -77.04764 14794 ft 356 kts 32°
2026-04-22 06:26 38.44107 -77.02924 14408 ft 356 kts 31°
2026-04-22 06:26 38.46120 -77.01106 13997 ft 353 kts 31°
2026-04-22 06:26 38.48125 -76.99307 13500 ft 352 kts 31°
2026-04-22 06:27 38.50135 -76.97514 12972 ft 352 kts 31°
2026-04-22 06:27 38.52136 -76.95728 12543 ft 349 kts 31°
2026-04-22 06:27 38.54118 -76.93958 12136 ft 346 kts 31°
2026-04-22 06:27 38.56026 -76.92092 11770 ft 344 kts 36°
2026-04-22 06:28 38.57784 -76.90035 11447 ft 340 kts 39°
2026-04-22 06:28 38.59473 -76.87950 11126 ft 335 kts 39°
2026-04-22 06:28 38.61135 -76.85899 10801 ft 330 kts 39°
2026-04-22 06:28 38.62781 -76.83887 10487 ft 325 kts 38°
2026-04-22 06:29 38.64411 -76.81914 10187 ft 320 kts 38°
2026-04-22 06:29 38.66024 -76.79974 9874 ft 314 kts 38°
2026-04-22 06:29 38.67596 -76.78085 9564 ft 309 kts 38°
2026-04-22 06:29 38.69134 -76.76239 9237 ft 304 kts 38°
2026-04-22 06:30 38.70630 -76.74366 8906 ft 299 kts 45°
2026-04-22 06:30 38.71776 -76.72151 8634 ft 297 kts 56°
2026-04-22 06:30 38.72724 -76.69842 8366 ft 292 kts 58°
2026-04-22 06:30 38.73654 -76.67556 8096 ft 288 kts 57°
2026-04-22 06:31 38.74601 -76.65306 7825 ft 286 kts 56°
2026-04-22 06:31 38.75559 -76.63076 7566 ft 285 kts 56°
2026-04-22 06:31 38.76523 -76.60850 7313 ft 285 kts 56°
2026-04-22 06:31 38.77582 -76.58749 7019 ft 274 kts 39°
2026-04-22 06:32 38.79123 -76.57465 6793 ft 260 kts 13°
2026-04-22 06:32 38.80867 -76.56900 6556 ft 259 kts
2026-04-22 06:32 38.82656 -76.56435 6304 ft 265 kts
2026-04-22 06:32 38.84462 -76.55989 6026 ft 260 kts 359°
2026-04-22 06:33 38.86189 -76.56194 5806 ft 245 kts 341°
2026-04-22 06:33 38.87857 -76.56685 5409 ft 247 kts 342°
2026-04-22 06:33 38.89516 -76.57144 5104 ft 246 kts 342°
2026-04-22 06:33 38.91186 -76.57595 5007 ft 245 kts 343°
2026-04-22 06:34 38.92879 -76.58051 5017 ft 252 kts 343°
2026-04-22 06:34 38.94608 -76.58515 5020 ft 255 kts 343°
2026-04-22 06:34 38.96299 -76.59112 4986 ft 246 kts 327°
2026-04-22 06:34 38.97564 -76.60495 4949 ft 238 kts 303°
2026-04-22 06:35 38.98414 -76.62304 4602 ft 236 kts 296°
2026-04-22 06:35 38.99231 -76.64146 4188 ft 236 kts 295°
2026-04-22 06:35 39.00050 -76.65987 4043 ft 240 kts 295°
2026-04-22 06:35 39.00873 -76.67839 4000 ft 239 kts 295°
2026-04-22 06:36 39.01692 -76.69676 3995 ft 235 kts 295°
2026-04-22 06:36 39.02506 -76.71499 3992 ft 234 kts 295°
2026-04-22 06:36 39.03317 -76.73317 3993 ft 235 kts 295°
2026-04-22 06:36 39.04131 -76.75120 4008 ft 237 kts 295°
2026-04-22 06:37 39.04961 -76.76960 4003 ft 239 kts 295°
2026-04-22 06:37 39.05807 -76.78832 4004 ft 239 kts 295°
2026-04-22 06:37 39.06633 -76.80663 4001 ft 240 kts 295°
2026-04-22 06:37 39.07462 -76.82521 3997 ft 237 kts 292°
2026-04-22 06:38 39.08085 -76.84464 3998 ft 234 kts 285°
2026-04-22 06:38 39.08626 -76.86421 3988 ft 230 kts 294°
2026-04-22 06:38 39.09739 -76.87947 4007 ft 245 kts 324°
2026-04-22 06:38 39.11395 -76.88679 4010 ft 259 kts 346°
2026-04-22 06:39 39.13194 -76.88989 4004 ft 261 kts 347°
2026-04-22 06:39 39.14997 -76.89295 4006 ft 262 kts 347°
2026-04-22 06:39 39.16801 -76.89602 4003 ft 262 kts 347°
2026-04-22 06:39 39.18587 -76.89913 4003 ft 261 kts 346°
2026-04-22 06:40 39.20386 -76.90231 3995 ft 261 kts 346°
2026-04-22 06:40 39.22189 -76.90552 4003 ft 260 kts 346°
2026-04-22 06:40 39.23982 -76.90874 3996 ft 260 kts 346°
2026-04-22 06:40 39.25742 -76.91190 3965 ft 248 kts 346°
2026-04-22 06:41 39.27405 -76.91115 3968 ft 239 kts 15°
2026-04-22 06:41 39.28838 -76.89978 4011 ft 248 kts 42°
2026-04-22 06:41 39.29911 -76.88217 3900 ft 251 kts 53°
2026-04-22 06:41 39.30913 -76.86408 3793 ft 243 kts 53°
2026-04-22 06:42 39.31855 -76.84623 3672 ft 239 kts 64°
2026-04-22 06:42 39.32156 -76.82573 3579 ft 232 kts 101°
2026-04-22 06:42 39.31563 -76.80712 3289 ft 220 kts 137°
2026-04-22 06:42 39.30494 -76.79406 3095 ft 205 kts 148°
2026-04-22 06:43 39.29384 -76.78287 2866 ft 201 kts 152°
2026-04-22 06:43 39.28264 -76.77240 2601 ft 196 kts 153°
2026-04-22 06:43 39.27202 -76.76251 2337 ft 179 kts 153°
2026-04-22 06:43 39.26265 -76.75378 2115 ft 156 kts 154°
2026-04-22 06:44 39.25452 -76.74620 1908 ft 135 kts 154°
2026-04-22 06:44 39.24694 -76.73921 1747 ft 134 kts 154°
2026-04-22 06:44 39.23918 -76.73203 1551 ft 140 kts 153°
2026-04-22 06:44 39.23125 -76.72463 1361 ft 140 kts 152°
2026-04-22 06:45 39.22341 -76.71736 1129 ft 139 kts 150°
2026-04-22 06:45 39.21557 -76.70996 994 ft 140 kts 148°
2026-04-22 06:45 39.20749 -76.70251 791 ft 144 kts 147°
2026-04-22 06:45 39.19930 -76.69495 577 ft 144 kts 146°
2026-04-22 06:46 39.19117 -76.68737 350 ft 144 kts 144°
2026-04-22 06:46 39.18304 -76.67981 166 ft 143 kts 145°
2026-04-22 06:46 39.17589 -76.67321 153 ft 102 kts 144°
2026-04-22 06:46 39.17160 -76.66923 152 ft 49 kts 144°
2026-04-22 06:47 39.16995 -76.66766 150 ft 21 kts 132°
2026-04-22 06:47 39.17022 -76.66626 151 ft 18 kts 39°
2026-04-22 06:47 39.17144 -76.66614 152 ft 16 kts
2026-04-22 06:47 39.17236 -76.66606 150 ft 14 kts
2026-04-22 06:48 39.17334 -76.66596 150 ft 14 kts
2026-04-22 06:48 39.17427 -76.66571 151 ft 14 kts 43°
2026-04-22 06:48 39.17497 -76.66459 149 ft 19 kts 32°
2026-04-22 06:48 39.17613 -76.66360 152 ft 20 kts 33°
2026-04-22 06:49 39.17731 -76.66261 155 ft 20 kts 33°
2026-04-22 06:49 39.17849 -76.66161 156 ft 20 kts 33°
2026-04-22 06:49 39.17967 -76.66062 153 ft 20 kts 33°
2026-04-22 06:49 39.18080 -76.66079 150 ft 24 kts 325°
2026-04-22 06:50 39.18232 -76.66219 154 ft 27 kts 324°
2026-04-22 06:50 39.18333 -76.66333 156 ft 15 kts 287°
2026-04-22 06:50 39.18368 -76.66453 161 ft 18 kts 323°
2026-04-22 06:50 39.18473 -76.66552 163 ft 19 kts 323°
2026-04-22 06:51 39.18584 -76.66644 165 ft 19 kts 334°
2026-04-22 06:51 39.18698 -76.66727 169 ft 16 kts 320°
2026-04-22 06:51 39.18713 -76.66839 172 ft 0 kts 268°